Temp
73 74 75 69 52 53 50 56 66 63 63 70 73 70 66 71 65 54 62 68 75 76 76 76 74 75 77 77 77 77 77 77 78 78 78 78 78 78 78 79 79 79 79 78 78 78 78 77 76
74 78 71 62 48 46 50 62 62 66 67 69 71 69 65 64 65 62 61 68 70 76 77 74 74 74 76 77 77 77 77 77 77 77 78 78 78 78 78 79 79 78 78 78 77 76 76 76 76
72 79 60 54 51 46 50 61 64 69 70 68 63 68 67 63 66 63 61 64 68 65 72 73 73 74 76 77 77 77 77 76 76 76 77 77 78 78 78 78 77 76 76 76 76 76 75 75 75
70 66 63 50 49 56 58 63 66 66 68 68 67 62 62 66 64 61 60 61 62 61 64 65 72 74 75 76 76 77 76 77 76 76 76 77 78 78 78 76 76 75 75 75 75 75 75 75 74
70 62 49 47 50 59 64 66 66 61 64 66 66 61 57 62 62 58 58 58 56 57 59 61 73 74 75 75 76 76 76 76 76 76 76 76 78 77 76 75 75 75 75 75 75 75 74 74 74
57 59 47 44 51 60 65 67 66 63 64 65 63 63 54 63 57 56 56 54 55 54 56 57 63 72 74 74 75 75 75 75 75 75 75 75 76 75 75 75 75 74 75 75 75 74 74 73 73
54 51 47 50 53 57 63 68 61 62 63 63 67 59 56 54 55 55 54 53 53 53 53 55 56 62 69 71 71 72 72 72 74 74 74 73 73 73 74 74 74 74 74 74 74 74 73 73 72
59 54 48 51 51 53 62 64 66 61 61 68 68 57 52 53 55 54 54 52 52 52 51 52 54 56 60 64 67 68 68 68 69 69 69 70 69 68 69 71 73 73 73 73 73 73 73 72 71
62 47 44 48 52 55 62 57 64 64 61 63 62 57 58 55 55 54 53 51 51 50 49 51 51 53 55 58 61 63 65 66 67 66 65 65 68 66 64 65 69 71 72 72 72 72 72 70 69
51 44 47 57 59 57 62 59 61 58 57 58 55 58 59 57 56 53 50 48 47 47 48 49 50 50 53 55 56 56 57 59 61 63 62 61 62 63 62 62 67 68 67 71 72 71 71 69 68
50 44 55 59 58 59 57 57 60 57 52 52 54 54 57 56 55 49 47 46 46 47 47 48 49 50 50 51 53 54 54 55 55 58 59 60 60 60 60 58 59 60 62 66 68 67 68 72 73
46 53 55 57 55 55 53 58 53 55 48 54 54 57 56 55 50 49 46 46 45 46 46 47 49 49 49 49 48 48 51 52 53 54 55 57 58 57 57 57 54 54 55 57 59 64 67 72 74
48 51 55 56 54 52 56 51 52 52 53 55 57 57 54 47 46 45 45 45 46 44 45 46 47 47 48 48 48 47 46 48 50 52 54 55 54 54 56 56 54 54 52 52 54 59 61 65 68
50 51 51 52 52 53 50 49 50 49 53 53 55 53 50 48 46 44 44 43 43 44 44 46 46 47 47 46 46 46 46 46 47 49 51 52 52 52 52 52 54 54 56 54 53 55 59 62 61
49 42 46 47 50 49 51 43 45 51 53 51 52 50 46 44 45 42 42 41 42 42 44 45 45 45 45 45 45 45 45 46 45 46 47 50 51 51 50 50 50 53 55 57 55 56 56 55 60
41 40 31 44 48 49 47 31 46 51 49 47 48 46 43 41 40 39 40 41 42 43 42 43 45 44 43 43 44 44 44 44 44 45 46 47 48 50 49 49 48 50 53 55 54 55 55 53 53
37 28 34 38 50 48 43 32 43 46 46 46 46 43 41 38 39 38 41 41 42 43 43 42 43 42 43 43 43 43 44 43 44 45 45 47 48 48 48 48 48 49 49 49 52 51 53 52 51
29 30 35 35 45 47 40 37 39 42 45 43 44 42 39 38 37 39 38 39 42 42 43 43 44 42 42 42 43 42 42 43 43 43 44 46 47 47 47 47 47 48 48 48 49 50 50 48 48
34 31 30 38 42 38 37 37 39 39 38 39 40 39 38 37 39 39 39 37 38 41 41 42 43 43 43 41 41 41 40 42 42 43 44 45 46 47 46 46 46 46 46 45 46 48 48 46 46
33 30 30 37 43 38 35 34 36 38 36 36 39 39 37 36 37 38 37 37 37 38 40 40 42 43 44 43 42 42 42 41 43 44 44 45 45 45 46 45 44 45 44 44 44 45 46 45 45
30 28 29 31 38 38 33 27 33 33 31 34 36 38 40 37 36 37 36 36 37 37 38 40 41 43 44 44 43 42 42 40 41 41 41 44 45 44 44 44 44 43 44 42 42 43 44 43 44
27 36 33 31 27 18 31 13 29 29 26 27 28 32 33 37 39 38 35 33 34 36 39 40 42 42 45 45 44 42 40 38 38 40 40 41 45 45 45 44 44 42 42 42 42 43 43 44 42
29 35 33 31 24 21 25 18 23 30 22 22 24 29 32 34 34 36 33 30 31 31 35 37 38 38 39 42 43 42 40 39 40 39 38 39 40 42 43 44 44 42 42 42 43 42 42 43 42
34 31 30 28 20 12 21 19 17 20 16 26 27 33 34 35 38 38 35 31 28 27 29 31 31 33 35 36 39 41 40 36 35 37 35 36 38 38 40 42 41 42 42 41 41 43 42 42 42
26 20 5 5 11 10 24 21 13 17 19 24 25 29 30 31 33 36 35 29 27 25 27 26 28 27 30 33 35 37 37 37 36 35 34 37 36 35 37 39 39 38 39 40 41 41 41 41 41
21 13 6 1 -0 9 22 11 11 19 26 28 27 25 28 27 30 31 34 30 27 26 26 23 23 22 26 27 31 34 35 34 35 38 35 34 34 34 37 38 39 40 40 40 40 38 39 40 40
20 8 18 12 11 15 17 15 16 22 23 24 23 25 24 26 27 28 30 30 27 25 23 23 21 23 24 27 28 31 33 34 34 35 35 34 35 38 37 37 37 38 39 39 39 40 39 40 40
17 21 12 6 -2 -4 7 15 11 17 18 21 22 21 22 26 27 28 28 29 29 28 25 25 23 21 20 22 24 28 29 33 34 34 33 34 35 36 36 36 37 38 38 38 38 37 38 39 40
12 13 11 11 15 1 -4 7 15 15 18 19 20 22 23 24 25 26 28 29 29 29 29 28 27 24 20 18 20 21 26 29 33 32 33 33 33 35 36 37 36 37 37 38 37 37 38 37 37
9 4 6 4 8 14 6 6 17 19 21 21 22 22 23 23 23 24 24 24 25 25 26 25 26 27 28 29 27 20 20 26 29 30 31 32 32 33 35 37 37 37 36 36 36 36 37 36 36
MSLP
1010.82 1010.68 1010.27 1010.04 1010.58 1009.43 1008.04 1007.08 1005.52 1005.15 1005.33 1005.11 1004.88 1005.60 1006.47 1007.54 1009.39 1011.80 1012.44 1012.27 1011.77 1011.59 1012.07 1012.50 1012.66 1012.80 1012.94 1012.97 1013.01 1013.16 1013.52 1014.01 1014.08 1014.39 1014.75 1014.90 1015.31 1015.38 1015.51 1015.71 1015.84 1015.99 1016.21 1016.38 1016.38 1016.55 1016.69 1016.94 1017.07
1010.43 1010.16 1010.04 1009.92 1009.80 1008.60 1007.40 1006.20 1005.15 1004.78 1005.19 1005.62 1005.73 1006.16 1006.89 1008.87 1010.24 1011.87 1012.66 1012.76 1012.40 1011.71 1012.06 1012.63 1012.78 1012.88 1012.96 1013.13 1013.21 1013.39 1013.73 1014.14 1014.31 1014.58 1014.76 1015.12 1015.36 1015.68 1015.80 1015.92 1016.06 1016.25 1016.60 1016.73 1016.90 1017.08 1017.13 1017.31 1017.44
1010.58 1009.79 1010.15 1009.78 1008.91 1007.80 1006.55 1005.15 1004.62 1004.73 1005.40 1006.04 1006.57 1006.91 1007.85 1010.04 1011.12 1012.32 1013.22 1013.27 1012.73 1012.66 1012.54 1012.75 1012.92 1012.96 1013.09 1013.30 1013.38 1013.68 1013.84 1014.33 1014.56 1014.72 1015.09 1015.23 1015.46 1015.78 1015.97 1016.23 1016.39 1016.59 1016.99 1017.15 1017.29 1017.50 1017.62 1017.69 1017.80
1010.20 1010.18 1010.10 1009.06 1007.81 1007.24 1006.36 1005.07 1004.72 1005.05 1005.74 1006.31 1006.91 1007.94 1009.78 1011.04 1011.46 1012.95 1013.76 1013.65 1013.63 1013.54 1013.54 1013.31 1013.04 1013.12 1013.25 1013.52 1013.60 1013.84 1014.16 1014.40 1014.72 1015.02 1015.20 1015.42 1015.69 1016.08 1016.30 1016.54 1016.79 1016.94 1017.35 1017.49 1017.71 1017.85 1017.99 1018.10 1018.21
1009.89 1009.79 1009.93 1008.52 1007.66 1006.82 1005.41 1004.93 1005.17 1005.35 1005.69 1006.59 1007.37 1008.41 1010.57 1012.19 1012.96 1013.74 1014.34 1014.57 1014.24 1014.21 1014.33 1013.87 1013.05 1013.23 1013.37 1013.61 1013.82 1014.02 1014.30 1014.59 1014.82 1015.07 1015.38 1015.69 1015.82 1016.24 1016.72 1016.80 1016.95 1017.34 1017.65 1017.81 1018.02 1018.24 1018.32 1018.40 1018.54
1009.99 1009.59 1008.87 1007.93 1007.39 1006.59 1005.49 1004.99 1005.38 1005.91 1006.11 1006.84 1007.70 1008.77 1011.50 1012.46 1013.55 1014.30 1014.57 1014.76 1014.87 1014.96 1014.76 1014.41 1013.86 1013.38 1013.60 1013.81 1014.10 1014.28 1014.50 1014.81 1014.99 1015.35 1015.57 1015.92 1016.07 1016.50 1016.96 1017.21 1017.25 1017.60 1017.99 1018.20 1018.36 1018.45 1018.61 1018.69 1018.87
1009.55 1009.40 1008.42 1007.73 1006.91 1005.99 1005.07 1004.72 1005.45 1006.20 1006.85 1007.38 1008.10 1009.32 1011.93 1013.41 1014.49 1014.86 1015.25 1015.58 1015.77 1015.73 1015.33 1015.08 1014.64 1014.74 1014.26 1014.39 1014.44 1014.75 1015.03 1015.33 1015.32 1015.59 1015.93 1016.25 1016.60 1016.83 1017.24 1017.56 1017.76 1017.87 1018.12 1018.48 1018.73 1018.73 1018.84 1018.94 1019.12
1009.64 1009.64 1008.46 1007.29 1007.12 1005.95 1005.08 1005.15 1005.71 1006.44 1007.11 1007.46 1008.10 1009.81 1012.29 1014.04 1014.94 1015.20 1015.55 1015.99 1016.26 1016.26 1016.23 1015.97 1015.65 1015.37 1015.38 1015.14 1015.15 1015.41 1015.79 1015.97 1016.13 1016.20 1016.48 1016.69 1017.08 1017.36 1017.76 1017.72 1018.11 1018.33 1018.48 1018.61 1019.00 1019.06 1019.10 1019.20 1019.30
1009.68 1009.39 1007.60 1007.34 1007.14 1006.41 1005.79 1005.98 1006.37 1006.98 1007.78 1008.45 1009.38 1010.97 1012.58 1014.07 1014.92 1015.29 1015.75 1016.35 1016.63 1016.90 1017.07 1016.85 1016.61 1016.58 1016.47 1015.77 1016.04 1016.05 1016.25 1016.52 1016.70 1016.92 1017.12 1017.30 1017.59 1017.90 1018.28 1018.32 1018.36 1018.61 1018.74 1018.92 1019.08 1019.28 1019.37 1019.37 1019.44
1009.59 1008.97 1007.74 1007.50 1006.98 1006.73 1006.08 1006.43 1006.85 1007.83 1008.89 1009.74 1011.00 1012.13 1013.03 1014.10 1014.93 1015.65 1016.36 1017.03 1017.51 1017.64 1017.86 1017.83 1017.62 1017.30 1016.91 1016.56 1016.60 1016.56 1016.76 1016.91 1017.31 1017.58 1017.78 1017.95 1018.24 1018.44 1018.92 1018.92 1018.85 1019.03 1019.18 1019.17 1019.25 1019.44 1019.52 1019.60 1019.59
1009.32 1008.03 1008.13 1007.37 1007.35 1007.49 1007.35 1007.25 1007.55 1008.44 1009.77 1011.06 1011.36 1012.43 1013.36 1014.24 1015.40 1016.41 1017.19 1017.69 1017.99 1018.39 1018.41 1018.40 1018.12 1017.89 1017.70 1017.69 1017.12 1016.87 1017.01 1017.45 1017.81 1018.18 1018.30 1018.55 1018.70 1018.97 1019.23 1019.44 1019.75 1019.78 1019.67 1019.63 1019.62 1019.56 1019.57 1019.49 1019.30
1008.95 1008.61 1008.60 1008.02 1008.26 1008.26 1008.29 1008.29 1008.67 1009.46 1011.24 1011.82 1012.37 1012.87 1013.68 1014.73 1016.05 1017.08 1017.84 1018.33 1018.50 1018.73 1018.93 1018.86 1018.67 1018.60 1018.49 1018.54 1018.37 1018.17 1018.12 1017.75 1018.34 1018.68 1018.83 1018.98 1018.98 1019.39 1019.81 1020.08 1020.53 1020.72 1020.54 1020.49 1020.42 1020.27 1019.93 1019.51 1019.37
1009.30 1009.17 1008.67 1008.48 1008.71 1008.93 1009.18 1009.39 1009.88 1010.81 1011.71 1012.40 1013.01 1013.57 1014.40 1015.72 1017.00 1017.88 1018.64 1018.93 1019.05 1019.14 1019.32 1019.31 1019.29 1019.18 1018.99 1019.08 1019.07 1018.93 1019.01 1018.77 1019.04 1018.84 1018.96 1019.41 1019.50 1020.00 1020.15 1020.51 1020.74 1021.01 1021.27 1021.22 1021.05 1020.86 1020.59 1020.28 1020.14
1009.50 1009.53 1009.32 1009.42 1009.34 1009.57 1010.07 1010.34 1010.74 1011.67 1012.11 1012.89 1013.23 1014.14 1015.34 1016.47 1017.53 1018.42 1019.09 1019.56 1019.64 1019.67 1019.81 1019.86 1019.73 1019.53 1019.55 1019.53 1019.70 1019.60 1019.43 1019.25 1019.72 1019.41 1019.39 1019.74 1020.09 1020.35 1020.45 1020.76 1021.23 1021.10 1021.39 1021.54 1021.45 1021.32 1021.08 1021.10 1020.99
1010.19 1010.56 1010.28 1010.04 1009.84 1010.14 1010.78 1011.11 1011.22 1011.59 1012.30 1013.13 1013.97 1015.06 1016.40 1017.60 1018.35 1019.12 1019.65 1019.98 1020.20 1020.29 1020.31 1020.23 1020.26 1020.35 1020.25 1020.42 1020.14 1020.33 1019.47 1020.08 1020.67 1020.11 1020.21 1019.88 1020.11 1020.71 1020.72 1021.11 1021.61 1021.55 1021.51 1021.63 1021.78 1021.52 1021.48 1021.63 1021.62
1011.27 1011.48 1011.29 1010.30 1010.39 1010.40 1011.00 1011.27 1011.83 1011.85 1012.64 1013.64 1014.51 1015.87 1017.28 1018.59 1019.44 1019.99 1020.15 1020.26 1020.48 1020.64 1020.87 1020.79 1020.78 1020.92 1020.89 1021.09 1020.87 1021.01 1020.50 1020.73 1020.45 1020.39 1020.77 1020.85 1020.74 1021.04 1021.30 1021.60 1021.87 1021.69 1021.91 1022.19 1022.07 1022.06 1021.87 1022.16 1022.19
1012.04 1011.76 1011.32 1010.89 1010.09 1010.56 1011.31 1011.84 1012.74 1013.10 1013.40 1014.00 1014.91 1016.35 1017.77 1019.06 1020.01 1020.56 1020.73 1020.92 1020.85 1020.92 1021.05 1021.31 1021.34 1021.47 1021.48 1021.73 1021.23 1021.53 1021.22 1021.52 1021.53 1021.54 1021.31 1021.77 1021.02 1021.38 1021.10 1022.29 1022.76 1021.99 1021.77 1022.36 1022.64 1022.94 1022.95 1022.51 1022.50
1012.38 1012.36 1011.78 1011.05 1010.14 1010.11 1011.32 1012.10 1013.00 1013.65 1014.09 1014.63 1015.25 1016.62 1018.14 1019.29 1020.34 1020.99 1021.17 1021.30 1021.21 1021.24 1021.39 1021.55 1021.72 1021.80 1021.78 1022.05 1021.98 1021.55 1021.96 1021.92 1022.05 1022.17 1022.40 1022.18 1022.14 1021.08 1021.51 1022.08 1022.52 1023.12 1022.37 1022.43 1022.97 1023.10 1023.52 1023.05 1022.67
1012.74 1012.76 1012.34 1011.68 1011.52 1011.12 1011.69 1012.49 1013.40 1014.20 1014.76 1015.13 1015.73 1016.86 1018.28 1019.54 1020.56 1021.22 1021.57 1021.74 1021.75 1021.71 1021.76 1021.79 1021.96 1022.16 1022.12 1022.10 1022.17 1022.25 1022.36 1022.36 1022.32 1022.47 1022.38 1022.74 1022.44 1021.90 1021.96 1022.60 1022.92 1023.36 1022.68 1022.65 1023.20 1023.52 1023.41 1024.06 1023.39
1013.09 1013.14 1013.01 1012.40 1012.00 1012.47 1012.85 1013.44 1014.57 1015.19 1015.76 1016.21 1016.51 1017.12 1018.23 1019.60 1020.52 1021.18 1021.68 1022.00 1022.18 1022.13 1022.14 1022.19 1022.28 1022.32 1022.17 1022.30 1022.31 1022.22 1023.03 1022.44 1022.73 1022.69 1022.95 1023.24 1023.29 1022.68 1022.92 1023.02 1023.20 1023.50 1023.37 1023.17 1023.54 1023.63 1024.14 1024.67 1024.42
1013.63 1013.67 1013.86 1013.66 1013.13 1013.36 1014.05 1014.48 1015.09 1016.13 1016.69 1017.29 1017.60 1017.81 1018.30 1019.34 1020.35 1021.23 1021.84 1022.20 1022.44 1022.58 1022.62 1022.62 1022.46 1022.40 1022.39 1022.23 1022.70 1022.76 1023.33 1023.03 1023.05 1023.44 1023.14 1023.07 1023.50 1023.34 1023.33 1023.24 1023.39 1023.84 1023.64 1023.45 1023.86 1024.06 1024.10 1024.59 1024.75
1014.33 1014.15 1014.38 1014.63 1014.87 1014.85 1015.06 1015.52 1015.42 1016.43 1017.53 1018.36 1018.69 1018.83 1019.04 1019.46 1020.24 1021.16 1022.13 1022.54 1023.03 1023.08 1022.92 1022.92 1022.75 1022.60 1022.49 1022.32 1022.72 1022.66 1023.12 1022.71 1023.24 1023.83 1023.72 1023.05 1023.74 1023.86 1023.93 1023.77 1023.95 1024.22 1024.05 1023.68 1024.08 1024.24 1024.68 1024.51 1024.53
1015.37 1015.03 1015.14 1015.37 1015.91 1016.38 1016.45 1017.22 1016.11 1016.90 1018.63 1019.05 1019.40 1019.85 1020.09 1020.32 1020.86 1021.51 1022.56 1023.40 1023.81 1023.92 1023.72 1023.49 1023.42 1023.30 1023.00 1022.73 1022.62 1022.45 1023.15 1022.98 1023.24 1024.07 1024.32 1024.07 1024.35 1024.76 1024.62 1024.30 1024.37 1024.32 1024.28 1024.03 1024.42 1024.75 1024.83 1024.84 1024.93
1016.41 1016.30 1016.38 1016.64 1017.40 1017.62 1017.21 1018.30 1017.96 1019.18 1019.80 1019.40 1020.04 1020.51 1020.90 1021.30 1021.61 1022.13 1023.08 1023.91 1024.46 1024.75 1024.55 1024.37 1024.29 1024.25 1023.87 1023.39 1023.22 1023.19 1023.28 1023.78 1024.13 1024.06 1024.74 1024.84 1024.61 1025.08 1025.11 1024.51 1024.43 1024.40 1024.42 1024.34 1024.63 1024.87 1024.99 1025.16 1025.28
1017.57 1017.97 1018.22 1018.65 1018.79 1017.68 1017.38 1019.07 1019.57 1020.68 1020.84 1020.67 1020.82 1021.60 1022.19 1022.61 1022.82 1022.89 1023.43 1024.40 1025.04 1025.23 1025.40 1025.30 1025.24 1025.23 1024.80 1024.34 1023.98 1023.68 1023.30 1024.01 1024.20 1024.23 1024.49 1025.22 1025.29 1025.37 1025.39 1024.89 1024.92 1025.03 1025.00 1024.77 1024.83 1025.25 1025.32 1025.19 1025.44
1019.24 1019.36 1019.58 1019.41 1018.98 1018.36 1017.88 1019.68 1021.14 1022.11 1022.21 1022.01 1022.23 1022.68 1023.26 1023.64 1023.90 1024.04 1024.03 1024.82 1025.52 1025.78 1025.96 1025.91 1025.97 1026.11 1025.70 1025.35 1024.96 1024.24 1024.65 1024.66 1024.56 1024.75 1024.82 1025.24 1025.72 1025.02 1025.43 1025.27 1024.99 1025.19 1025.26 1025.05 1025.40 1025.75 1025.62 1025.70 1025.83
1020.81 1020.84 1021.11 1020.93 1020.09 1020.24 1019.87 1021.51 1022.40 1022.94 1023.28 1023.51 1023.71 1023.94 1024.33 1024.57 1024.76 1024.96 1025.07 1025.46 1026.10 1026.45 1026.54 1026.52 1026.50 1026.60 1026.37 1026.13 1025.80 1025.51 1025.12 1024.92 1025.04 1025.24 1025.44 1025.68 1025.76 1025.70 1025.61 1025.49 1025.25 1025.49 1025.57 1025.38 1025.77 1025.91 1025.86 1025.82 1026.19
1022.08 1022.32 1022.22 1022.15 1022.03 1021.48 1021.17 1022.33 1023.83 1023.90 1024.20 1024.54 1024.68 1025.00 1025.21 1025.34 1025.48 1025.66 1025.89 1026.20 1026.62 1026.87 1027.00 1026.90 1026.89 1027.07 1026.97 1026.79 1026.55 1026.24 1025.92 1025.68 1025.60 1025.64 1025.78 1025.93 1026.03 1025.79 1025.90 1025.83 1025.52 1025.74 1025.72 1025.65 1026.03 1026.10 1026.05 1026.09 1026.38
1023.73 1023.87 1024.12 1023.60 1023.21 1022.89 1023.33 1024.76 1025.54 1025.42 1024.92 1025.30 1025.73 1025.92 1026.05 1026.22 1026.33 1026.46 1026.59 1026.73 1026.90 1027.11 1027.27 1027.36 1027.38 1027.49 1027.51 1027.31 1027.16 1026.96 1026.72 1026.48 1026.23 1026.27 1026.26 1026.13 1025.94 1025.90 1025.94 1025.88 1025.94 1026.26 1026.27 1026.19 1026.15 1026.13 1026.18 1026.32 1026.46
1025.88 1026.30 1026.25 1026.02 1025.29 1024.58 1024.39 1026.37 1026.37 1026.15 1025.79 1025.95 1026.35 1026.65 1026.91 1027.08 1027.24 1027.41 1027.54 1027.63 1027.72 1027.80 1027.88 1027.93 1027.92 1027.86 1027.84 1027.77 1027.63 1027.48 1027.28 1026.99 1026.78 1026.67 1026.52 1026.35 1026.57 1026.45 1026.21 1026.04 1026.18 1026.29 1026.29 1026.33 1026.32 1026.30 1026.42 1026.50 1026.64
Wind_Speed
6 8 7 2 3 5 9 10 12 5 4 6 7 6 4 7 3 3 2 7 8 7 9 7 7 7 2 5 8 11 12 12 13 13 13 12 10 11 11 10 10 10 13 11 12 14 15 14 13
7 10 3 3 5 9 8 13 11 7 7 7 7 6 0 5 7 8 5 5 9 5 3 9 7 7 3 5 8 11 11 12 13 12 13 12 12 10 10 9 9 14 12 10 14 14 13 14 13
8 11 2 4 7 13 7 4 8 9 10 4 3 4 5 4 8 5 6 7 7 11 10 7 5 4 3 5 7 9 10 11 10 12 10 13 11 11 10 7 12 15 12 12 14 13 12 13 11
5 1 4 7 14 14 17 9 7 5 7 5 5 9 7 8 4 9 8 8 7 9 11 13 3 2 3 6 6 8 10 10 10 10 11 11 11 10 9 9 12 15 11 12 12 11 11 12 10
7 3 7 9 15 15 9 5 9 1 3 9 5 6 7 8 14 11 9 8 8 8 9 11 1 0 3 7 6 7 9 9 8 10 11 10 13 9 10 11 14 14 9 12 11 10 10 10 9
5 4 7 17 13 14 14 6 10 1 1 7 2 6 5 12 13 9 10 10 10 9 9 10 16 11 6 8 7 7 7 7 8 8 10 11 13 12 10 10 14 13 9 12 11 10 10 10 8
11 6 14 15 10 14 13 8 7 7 7 4 4 1 6 14 10 9 10 8 8 9 10 10 11 11 16 16 18 16 15 14 9 7 10 11 12 11 10 9 11 11 9 10 9 11 10 10 8
9 7 16 16 12 13 3 7 8 4 5 4 2 1 7 7 10 10 10 9 9 10 10 10 10 10 8 7 19 19 18 17 16 15 11 11 14 15 13 7 10 11 10 9 8 8 9 8 7
8 8 17 17 12 8 5 4 6 6 3 3 5 6 12 14 10 9 8 8 7 9 10 9 10 9 7 6 7 14 17 14 14 13 14 9 6 8 9 9 10 11 10 8 9 7 7 8 6
7 11 12 10 9 7 5 9 6 6 4 3 10 8 13 12 8 8 7 6 7 8 9 9 8 8 8 6 4 6 6 6 7 7 7 6 8 8 6 9 11 11 11 8 7 4 5 5 3
8 13 12 5 7 7 7 5 1 8 4 8 4 12 9 11 9 10 8 8 7 5 7 9 8 8 8 5 5 4 3 4 5 7 5 5 5 5 5 4 5 5 10 4 2 1 3 5 4
9 10 16 17 6 4 3 3 2 4 6 7 9 6 7 11 9 9 8 7 7 8 8 8 9 7 8 4 5 5 4 4 4 4 5 3 4 5 5 4 4 5 5 6 6 5 7 8 7
13 12 8 6 7 2 7 1 4 4 8 7 7 5 9 13 11 10 8 7 7 8 8 8 8 7 7 7 4 5 5 5 3 5 6 4 5 4 4 5 4 4 4 4 4 5 6 8 9
1 6 7 7 4 4 3 5 1 8 9 7 6 9 11 10 10 8 7 6 7 7 8 7 8 8 7 7 7 6 4 6 5 5 5 5 4 5 3 5 3 5 4 3 3 3 4 5 5
4 6 5 7 6 5 6 9 10 4 7 8 8 10 11 9 8 8 7 7 6 6 6 6 7 7 8 6 7 5 3 6 5 5 6 8 7 5 5 4 3 4 3 4 4 3 4 4 5
2 4 5 4 8 5 6 5 6 6 10 9 10 10 9 8 8 7 6 7 6 5 6 7 6 7 7 6 5 4 6 6 5 5 4 6 8 5 4 4 3 3 3 2 3 4 3 3 4
6 4 10 8 14 10 10 2 8 5 1 7 10 9 9 8 7 6 6 5 5 5 5 6 6 6 6 6 6 5 8 5 5 5 5 6 7 6 7 4 1 3 5 4 3 3 2 2 4
7 9 8 9 6 10 13 8 7 4 6 7 9 10 8 7 7 5 6 5 5 5 5 5 4 5 5 2 3 5 4 5 5 5 5 6 4 8 6 5 5 3 5 5 3 4 3 2 3
7 5 6 9 6 3 6 5 6 6 2 5 7 10 9 8 7 6 6 5 5 5 6 5 4 3 2 2 2 2 2 3 5 3 8 6 5 7 6 3 4 3 4 5 4 1 5 3 3
4 7 7 8 6 3 4 6 10 6 3 4 5 6 11 9 7 6 6 6 5 5 5 5 5 4 3 3 2 2 1 4 2 4 7 5 6 7 5 4 4 5 3 6 5 4 2 1 6
5 3 5 6 8 3 4 5 5 4 5 4 6 4 9 10 9 7 6 6 5 4 5 4 3 4 4 5 2 2 3 2 3 2 4 5 5 6 6 6 5 4 3 4 5 4 3 2 1
8 6 9 6 4 4 8 5 10 9 8 4 3 2 4 6 8 9 6 5 6 5 5 4 5 4 3 2 3 3 3 3 4 2 0 5 6 6 5 5 5 4 3 5 4 4 3 2 2
2 8 6 3 5 2 7 1 6 10 5 7 5 6 4 5 2 8 9 7 6 6 5 6 6 7 7 5 5 2 4 5 3 4 4 5 5 5 4 4 4 4 3 4 4 3 4 3 2
5 4 6 4 3 4 10 7 5 2 3 5 7 4 5 6 4 10 9 7 4 5 6 6 7 6 7 7 5 5 6 5 2 5 3 3 3 3 3 4 4 4 4 5 4 4 5 4 4
2 2 2 1 4 8 9 9 2 3 7 4 9 7 6 6 4 1 7 6 5 4 5 5 6 6 7 7 7 6 6 4 5 4 4 2 2 3 2 3 4 4 4 4 4 4 4 4 3
4 4 4 5 3 4 5 5 2 4 7 9 10 8 6 5 4 5 6 8 6 6 6 6 6 6 6 7 8 7 6 4 4 4 4 4 1 4 3 4 5 4 4 4 4 3 3 4 3
4 2 1 4 3 2 3 4 3 5 5 6 5 6 6 5 4 5 6 8 6 5 5 5 5 6 6 6 6 7 6 6 5 5 5 3 3 2 4 4 5 5 4 5 4 3 4 4 3
3 2 2 1 1 3 2 5 4 1 5 4 5 6 5 4 4 4 4 6 6 4 4 6 6 5 4 5 6 5 6 6 5 5 5 5 3 4 4 4 5 5 4 4 4 3 3 4 2
6 4 5 1 3 1 2 4 5 8 2 7 7 7 6 7 6 6 5 5 5 5 5 5 6 6 6 5 4 5 5 6 5 5 5 5 4 5 4 4 5 4 4 4 4 4 4 5 4
1 1 3 2 4 4 2 2 4 6 6 6 6 6 6 7 7 8 8 8 8 8 7 7 7 7 5 5 5 4 4 6 6 6 6 6 4 4 4 5 4 4 4 5 5 5 4 4 5
Wind_Direction
236 240 241 154 230 233 236 226 259 72 356 6 38 115 213 140 160 181 57 0 338 83 118 113 68 45 352 143 127 141 146 149 147 144 138 133 125 129 127 124 111 108 93 87 84 81 100 90 85
231 218 262 254 238 234 230 237 248 140 92 36 14 36 140 82 95 114 112 1 337 77 105 89 70 32 159 142 125 146 148 152 152 151 141 136 129 132 132 127 114 109 92 91 87 77 91 91 87
260 230 198 211 226 235 241 258 202 132 113 134 161 12 15 76 78 96 84 18 353 22 360 78 71 47 140 134 142 150 155 154 157 151 150 138 136 137 136 117 105 98 93 86 88 81 81 89 86
225 252 273 247 232 217 245 272 64 99 126 113 319 112 77 24 75 57 52 32 31 18 2 358 87 7 164 140 154 146 156 162 160 160 151 148 136 135 124 103 110 97 93 92 86 84 79 84 78
231 194 234 232 242 255 253 87 77 355 145 150 211 168 89 70 78 74 62 47 45 27 5 358 299 263 183 144 129 137 151 156 160 166 156 153 131 129 114 111 102 94 100 101 97 88 87 84 75
205 222 226 232 241 230 257 164 133 201 191 66 3 222 86 119 84 68 57 45 36 29 8 6 19 58 128 114 105 113 132 150 151 156 150 142 118 112 103 100 96 98 101 104 97 92 94 86 75
221 222 239 255 241 229 222 142 155 167 121 141 94 264 127 77 84 82 73 61 46 31 22 7 20 11 66 80 82 75 81 71 80 135 133 117 100 100 103 94 98 101 97 100 95 93 93 93 82
235 262 254 242 248 260 119 125 147 218 197 105 87 70 144 114 106 90 75 61 51 37 25 13 14 19 16 75 84 84 82 80 77 76 87 108 89 78 65 101 106 99 95 95 95 95 94 99 93
232 230 243 243 240 258 118 126 143 68 23 117 54 67 102 110 111 98 84 50 38 36 29 18 13 12 5 33 68 80 83 72 66 62 62 51 90 78 60 47 84 104 99 98 102 106 116 115 119
211 224 253 236 254 270 231 143 157 109 206 155 91 95 111 123 120 93 83 75 48 33 25 20 19 10 5 10 32 67 67 77 53 56 60 63 65 70 67 40 62 78 35 107 107 121 144 178 161
213 238 237 279 42 19 343 117 307 140 204 37 148 127 139 122 98 89 78 74 71 49 39 22 18 17 15 5 19 40 44 50 70 54 55 71 75 66 56 44 20 15 17 5 77 200 246 234 198
255 240 245 273 63 19 328 7 205 156 100 76 53 58 123 119 102 101 95 82 74 64 45 27 21 26 28 13 30 24 45 85 70 71 62 55 86 75 72 73 48 32 11 12 13 5 9 15 12
237 257 290 285 88 40 332 294 313 84 97 87 103 101 97 88 85 80 85 77 72 66 48 35 26 28 34 26 32 35 48 47 60 79 73 70 76 54 89 79 70 55 26 21 27 10 8 24 15
312 275 265 267 263 202 229 283 197 106 130 109 100 93 79 91 96 95 83 76 67 65 53 37 35 30 37 45 28 47 25 55 21 48 73 84 83 102 82 76 55 63 39 12 27 46 28 31 19
282 306 289 279 223 178 186 249 249 193 142 129 120 94 78 72 79 81 80 73 65 53 52 44 50 33 36 38 49 7 54 40 14 49 26 68 73 58 75 88 60 77 42 11 1 49 52 58 33
271 266 256 198 220 232 174 226 214 247 146 148 133 114 99 77 80 79 84 83 67 62 51 56 57 50 45 26 46 37 43 50 44 32 6 64 67 90 65 56 49 56 77 10 46 5 62 78 79
217 257 220 248 232 196 171 225 149 42 214 195 142 129 121 108 94 85 82 86 82 71 66 59 56 59 64 24 50 28 53 55 30 19 45 9 72 69 83 66 38 61 65 46 17 30 327 51 64
215 216 243 267 271 193 189 210 123 140 186 238 143 125 119 119 96 90 84 84 82 80 74 73 76 69 64 52 58 68 64 50 55 30 34 26 20 77 70 77 54 341 91 84 39 40 1 54 55
276 279 291 301 35 41 211 267 170 131 205 214 129 124 119 107 107 103 84 71 87 76 71 74 83 122 112 53 58 49 0 73 66 49 39 20 21 53 69 70 85 13 64 87 80 10 43 337 352
264 256 269 286 300 90 312 283 114 132 100 29 129 148 130 122 134 123 108 80 69 84 91 76 60 37 33 112 81 77 315 53 57 88 53 35 31 36 67 72 64 61 70 76 62 68 103 13 334
268 251 269 260 306 105 346 284 240 165 99 42 3 8 125 141 145 133 123 115 87 80 74 79 56 61 62 84 113 102 109 121 55 3 95 51 43 50 51 56 60 51 62 76 75 62 70 125 20
248 228 219 247 300 224 152 266 231 167 151 138 184 6 35 116 134 123 87 99 64 64 57 53 52 49 46 356 175 167 199 112 80 100 317 64 35 44 53 65 64 56 54 68 66 68 67 3 114
34 358 325 252 196 7 271 284 239 125 171 180 189 165 216 110 101 117 106 62 54 14 10 37 40 26 6 12 2 49 82 66 103 84 62 87 72 47 35 65 81 72 67 76 75 78 83 74 80
329 316 289 289 124 233 214 182 255 140 291 150 151 141 95 35 38 84 101 91 75 28 24 47 41 29 1 360 355 82 111 122 98 127 94 62 84 63 33 57 55 57 57 59 60 52 63 94 94
136 352 308 295 208 233 181 200 215 42 354 321 148 118 82 45 17 14 127 112 67 49 42 31 46 30 9 8 22 42 80 107 120 102 119 110 75 92 41 67 68 61 65 68 64 59 62 51 68
307 165 177 231 200 268 162 212 104 42 36 50 65 82 95 90 52 0 81 98 79 50 46 48 45 31 21 15 4 27 46 73 71 75 87 86 81 67 36 64 74 74 81 80 80 81 95 90 80
330 32 248 333 205 225 154 105 107 87 72 73 77 89 79 83 83 57 58 80 69 56 39 44 50 37 30 21 13 13 22 56 79 73 88 104 106 137 56 50 71 61 62 83 87 82 81 74 90
157 285 33 314 276 259 297 82 46 45 98 96 89 77 80 83 84 96 81 88 86 68 50 52 56 45 20 21 16 4 10 24 47 73 84 91 84 88 89 58 65 57 53 65 83 87 77 85 65
355 24 344 25 236 222 306 75 8 328 56 82 59 61 61 57 52 55 58 74 90 84 71 55 51 46 28 11 14 25 3 0 45 64 62 77 54 42 65 90 73 66 61 49 83 86 80 90 75
51 31 19 78 357 322 189 98 349 309 69 89 82 78 72 63 56 53 49 47 45 46 48 41 33 37 31 37 35 27 14 14 33 42 39 42 64 42 43 43 82 81 68 55 56 59 57 85 87